SL-19 DEB, 23492

Orbit data source: Space-Track

SL-19 DEB, 23492 is space debris in LEO originally from a launch on Mon, 26 Dec 1994 UTC launched from the Tyuratam Missile And Space Complex (TTMTR). Debris objects in space refer to the collection of defunct objects orbiting the Earth. Examples of debris include non-operational satellites, rocket bodies, and fragments generated from explosions, collisions, or faulty payload assembly.

Loading next visibility...
Identifier
23492, 1994-085Q
Orbit
LEO
Country
Flag of CISCIS
Related business
Manufacturer
Unknown
Mission
Spacecraft
Bus & Motor
Unknown
Mass
Unknown
Launch date (UTC)
1994-12-26 (31 years ago)
Launch vehicle
Unknown
Launch site
Tyuratam Missile And Space Complex (TTMTR)
Object type
Payload
Rocket body
Debris
Shape & HBR
Unknown shape, 0.1 m
Radar Cross Section
Medium (>0.1 m² and <1 m²)

Expand to show TLE details & history
Last TLE update: 4 days ago

TLE from 4 days ago
0 SL-19 DEB
1 23492U 94085Q   26169.26475955  .00000021  00000-0  17222-2 0  9992
2 23492  64.9509 256.9091 0171604 163.5268 230.0023 11.31181270299462
Epoch: 2026-06-18T06:21Z
TLE epoch observation values (Epoch: 2026-06-18T06:21:15.225Z)
Latitude
28.78198°
Longitude
-90.10789°
Altitude
2,100.812 km
Speed
6.822 km/s
True Right ascension
18h 06m 51s
True Declination
28° 39' 36"
Sunlit
Object was in daylight at epoch
Visualization orbit readout
Latitude
Unknown
Longitude
Unknown
Altitude
Unknown
Speed
Unknown
Apparent Right ascension
Unknown
Apparent Declination
Unknown
Sunlit
N/A
Visualization observer readout
Local Sidereal Time
02:19:21
Azimuth
Unknown
Elevation
Unknown
Doppler factor
Unknown
Orbital elements
Apogee altitude
2,147.114 km
Perigee altitude
1,859.456 km
Semi-major axis
8,381.422 km
Eccentricity
0.01716
Inclination
64.9509°
RAAN
256.9091°
Arg. of periapsis
163.5268°
True anomaly
228.51654°
Mean anomaly
230.0023°
Eccentric anomaly
229.25737°
Mean motion
2.82857 °/min
Orbital period
127.27 mins
BSTAR
0.0017222
Loading maneuver chart data...
Computing Atmospheric mass density...
Loading historical data...
Loading historical data...
Loading historical data...
Loading historical data...
Loading historical data...
Loading historical data...
Loading historical data...

Documentation

Showing up to 5 results
|